| time (UTC) | temp C | wind direction | speed KPH | gust KPH | rain 1hr cm | rain 24hr cm | rain mn cm | humidity % | barometer mb |
| 20260901161527 | 17 | 188 | 6.4 | 24.1 | 0.00 | 0.08 | 0.08 | 87 | 1016.3 |
| 20260901160110 | 17 | 124 | 8.0 | 22.5 | 0.00 | 0.08 | 0.08 | 85 | 1016.3 |
| 20260901154608 | 18 | 124 | 8.0 | 22.5 | 0.05 | 0.08 | 0.08 | 82 | 1016.2 |
| 20260901153017 | 18 | 124 | 3.2 | 17.7 | 0.05 | 0.08 | 0.08 | 86 | 1016.3 |
| 20260901151551 | 19 | 124 | 3.2 | 11.3 | 0.05 | 0.08 | 0.08 | 87 | 1016.4 |
| 20260901150019 | 20 | 193 | 6.4 | 11.3 | 0.05 | 0.08 | 0.08 | 90 | 1016.3 |
| 20260901144559 | 20 | 193 | 1.6 | 6.4 | 0.00 | 0.03 | 0.03 | 90 | 1016.8 |
| 20260901143035 | 20 | 190 | 1.6 | 4.8 | 0.03 | 0.03 | 0.03 | 90 | 1016.6 |
| 20260901141604 | 20 | 200 | 1.6 | 11.3 | 0.03 | 0.03 | 0.03 | 90 | 1016.3 |
| 20260901140020 | 20 | 179 | 0.0 | 9.7 | 0.03 | 0.03 | 0.03 | 90 | 1016.3 |
| 20260901134600 | 20 | 187 | 1.6 | 9.7 | 0.03 | 0.03 | 0.03 | 89 | 1016.2 |
| 20260901133031 | 21 | 153 | 1.6 | 9.7 | 0.00 | 0.00 | 0.00 | 88 | 1016.2 |
| 20260901131611 | 21 | 203 | 0.0 | 6.4 | 0.00 | 0.00 | 0.00 | 87 | 1016.1 |
| 20260901130039 | 21 | 196 | 1.6 | 9.7 | 0.00 | 0.00 | 0.00 | 87 | 1015.8 |
| 20260901124515 | 21 | 198 | 1.6 | 8.0 | 0.00 | 0.00 | 0.00 | 87 | 1016.0 |
| 20260901123051 | 21 | 172 | 1.6 | 11.3 | 0.00 | 0.00 | 0.00 | 87 | 1016.0 |
| 20260901121520 | 21 | 204 | 0.0 | 12.9 | 0.00 | 0.00 | 0.00 | 88 | 1016.0 |
| 20260901120113 | 20 | 202 | 0.0 | 4.8 | 0.00 | 0.00 | 0.00 | 90 | 1016.0 |
| 20260901114535 | 20 | 210 | 0.0 | 8.0 | 0.00 | 0.00 | 0.00 | 90 | 1016.1 |
| 20260901113101 | 20 | 211 | 0.0 | 1.6 | 0.00 | 0.00 | 0.00 | 90 | 1016.0 |
| 20260901111521 | 20 | 212 | 0.0 | 0.0 | 0.00 | 0.00 | 0.00 | 90 | 1015.8 |
| 20260901110051 | 20 | 212 | 0.0 | 0.0 | 0.00 | 0.00 | 0.00 | 90 | 1015.8 |
| 20260901104515 | 20 | 212 | 0.0 | 0.0 | 0.00 | 0.00 | 0.00 | 90 | 1015.6 |
| 20260901103100 | 20 | 212 | 0.0 | 0.0 | 0.00 | 0.03 | 0.00 | 90 | 1015.6 |
| 20260901101529 | 20 | 212 | 0.0 | 0.0 | 0.00 | 0.03 | 0.00 | 90 | 1015.3 |
| 20260901100058 | 19 | 212 | 0.0 | 0.0 | 0.00 | 0.03 | 0.00 | 90 | 1015.2 |
| 20260901094525 | 19 | 212 | 0.0 | 3.2 | 0.00 | 0.03 | 0.00 | 90 | 1015.2 |
| 20260901093103 | 19 | 212 | 0.0 | 4.8 | 0.00 | 0.03 | 0.00 | 90 | 1015.2 |
| 20260901091530 | 19 | 124 | 1.6 | 4.8 | 0.00 | 0.03 | 0.00 | 90 | 1015.2 |
| 20260901090006 | 19 | 212 | 0.0 | 3.2 | 0.00 | 0.03 | 0.00 | 89 | 1015.6 |
| 20260901084546 | 19 | 212 | 0.0 | 4.8 | 0.00 | 0.03 | 0.00 | 89 | 1015.9 |
| 20260901083013 | 20 | 212 | 0.0 | 1.6 | 0.00 | 0.03 | 0.00 | 89 | 1016.1 |
| 20260901081551 | 20 | 212 | 0.0 | 4.8 | 0.00 | 0.03 | 0.00 | 89 | 1016.1 |
| 20260901080009 | 20 | 212 | 0.0 | 4.8 | 0.00 | 0.03 | 0.00 | 89 | 1016.1 |
| 20260901074544 | 19 | 124 | 1.6 | 4.8 | 0.00 | 0.03 | 0.00 | 89 | 1016.1 |
| 20260901073010 | 19 | 212 | 0.0 | 8.0 | 0.00 | 0.03 | 0.00 | 88 | 1016.2 |
| 20260901071544 | 20 | 212 | 1.6 | 6.4 | 0.00 | 0.03 | 0.00 | 87 | 1016.1 |
| 20260901070013 | 20 | 124 | 0.0 | 6.4 | 0.00 | 0.03 | 0.00 | 86 | 1016.3 |
| 20260901064553 | 20 | 124 | 0.0 | 4.8 | 0.00 | 0.03 | 0.00 | 86 | 1016.5 |
| 20260901063044 | 20 | 124 | 1.6 | 11.3 | 0.00 | 0.03 | 0.00 | 85 | 1016.4 |
| 20260901061609 | 20 | 124 | 0.0 | 4.8 | 0.00 | 0.03 | 0.00 | 84 | 1016.5 |
| 20260901060029 | 20 | 210 | 1.6 | 8.0 | 0.00 | 0.03 | 0.00 | 82 | 1016.4 |
| 20260901054608 | 20 | 231 | 4.8 | 11.3 | 0.00 | 0.03 | 0.00 | 82 | 1016.4 |
| 20260901053036 | 20 | 200 | 1.6 | 6.4 | 0.00 | 0.38 | 0.00 | 81 | 1016.5 |
| 20260901051606 | 20 | 124 | 3.2 | 8.0 | 0.00 | 0.38 | 0.00 | 80 | 1016.5 |
| 20260901050032 | 20 | 124 | 4.8 | 12.9 | 0.00 | 0.38 | 0.00 | 81 | 1016.6 |
| 20260901044603 | 20 | 241 | 1.6 | 11.3 | 0.00 | 0.38 | 0.00 | 83 | 1016.8 |
| 20260901043031 | 20 | 124 | 3.2 | 12.9 | 0.00 | 1.60 | 0.38 | 84 | 1016.9 |
| 20260901041603 | 20 | 124 | 3.2 | 8.0 | 0.00 | 1.60 | 0.38 | 84 | 1016.9 |
| 20260901040026 | 20 | 193 | 1.6 | 8.0 | 0.00 | 1.60 | 0.38 | 85 | 1016.8 |
| 20260901033041 | 20 | 226 | 1.6 | 9.7 | 0.00 | 1.75 | 0.38 | 84 | 1017.0 |
| 20260901031507 | 20 | 124 | 1.6 | 9.7 | 0.00 | 1.75 | 0.38 | 83 | 1017.0 |
| 20260901030045 | 20 | 124 | 4.8 | 11.3 | 0.00 | 1.75 | 0.38 | 83 | 1017.0 |
| 20260901024509 | 20 | 124 | 4.8 | 12.9 | 0.00 | 1.75 | 0.38 | 83 | 1017.0 |
| 20260901023048 | 20 | 124 | 4.8 | 11.3 | 0.00 | 1.75 | 0.38 | 84 | 1017.3 |
| 20260901021510 | 20 | 191 | 1.6 | 8.0 | 0.00 | 1.75 | 0.38 | 85 | 1017.2 |
| 20260901020051 | 20 | 124 | 4.8 | 14.5 | 0.00 | 1.75 | 0.38 | 86 | 1017.3 |
| 20260901014509 | 20 | 124 | 3.2 | 6.4 | 0.00 | 1.75 | 0.38 | 87 | 1017.2 |
| 20260901013041 | 20 | 124 | 3.2 | 12.9 | 0.00 | 1.75 | 0.38 | 87 | 1017.2 |
| 20260901010045 | 20 | 124 | 0.0 | 9.7 | 0.00 | 1.75 | 0.38 | 86 | 1017.4 |
| 20260901004518 | 20 | 124 | 3.2 | 11.3 | 0.00 | 1.75 | 0.38 | 86 | 1017.3 |
| 20260901003040 | 20 | 124 | 1.6 | 14.5 | 0.00 | 1.75 | 0.38 | 85 | 1017.5 |
| 20260901001515 | 20 | 209 | 3.2 | 9.7 | 0.00 | 1.75 | 0.38 | 85 | 1017.6 |
| 20260901000046 | 20 | 124 | 1.6 | 8.0 | 0.00 | 1.75 | 0.38 | 86 | 1017.5 |
| 20260831234512 | 20 | 124 | 1.6 | 12.9 | 0.00 | 1.75 | 0.38 | 86 | 1017.5 |
| 20260831233059 | 20 | 124 | 1.6 | 8.0 | 0.00 | 1.75 | 0.38 | 86 | 1017.4 |
| 20260831231521 | 20 | 124 | 3.2 | 12.9 | 0.00 | 1.75 | 0.38 | 85 | 1017.4 |
| 20260831230104 | 20 | 124 | 3.2 | 14.5 | 0.00 | 1.75 | 0.38 | 85 | 1017.5 |
| 20260831224526 | 20 | 124 | 4.8 | 12.9 | 0.00 | 1.75 | 0.38 | 85 | 1017.5 |
| 20260831223023 | 21 | 124 | 1.6 | 8.0 | 0.00 | 1.75 | 0.38 | 83 | 1017.5 |
| 20260831221547 | 21 | 124 | 0.0 | 8.0 | 0.00 | 1.75 | 0.38 | 84 | 1017.6 |
| 20260831220007 | 21 | 124 | 1.6 | 11.3 | 0.00 | 1.75 | 0.38 | 83 | 1017.5 |
| 20260831214556 | 22 | 124 | 1.6 | 9.7 | 0.00 | 1.75 | 0.38 | 81 | 1017.6 |
| 20260831213009 | 22 | 124 | 4.8 | 9.7 | 0.00 | 1.75 | 0.38 | 80 | 1017.7 |
| 20260831211554 | 22 | 124 | 4.8 | 8.0 | 0.00 | 1.75 | 0.38 | 81 | 1017.7 |
| 20260831210032 | 22 | 124 | 3.2 | 11.3 | 0.00 | 1.75 | 0.38 | 82 | 1017.4 |
| 20260831204609 | 22 | 124 | 0.0 | 9.7 | 0.00 | 1.75 | 0.38 | 81 | 1017.4 |
| 20260831203028 | 23 | 234 | 6.4 | 14.5 | 0.00 | 1.75 | 0.38 | 77 | 1017.8 |
| 20260831201505 | 23 | 124 | 8.0 | 16.1 | 0.00 | 1.75 | 0.38 | 77 | 1017.6 |
| 20260831200042 | 23 | 198 | 1.6 | 11.3 | 0.00 | 1.75 | 0.38 | 68 | 1017.7 |
| 20260831194607 | 23 | 124 | 3.2 | 6.4 | 0.00 | 1.75 | 0.38 | 70 | 1017.8 |
| 20260831193028 | 22 | 150 | 0.0 | 9.7 | 0.00 | 1.75 | 0.38 | 71 | 1017.6 |
| 20260831191554 | 22 | 148 | 0.0 | 8.0 | 0.00 | 1.75 | 0.38 | 70 | 1018.0 |
| 20260831190011 | 22 | 148 | 1.6 | 8.0 | 0.00 | 1.75 | 0.38 | 66 | 1018.0 |
| 20260831184550 | 22 | 147 | 1.6 | 8.0 | 0.00 | 1.75 | 0.38 | 64 | 1018.3 |
| 20260831183014 | 22 | 145 | 3.2 | 8.0 | 0.00 | 1.75 | 0.38 | 68 | 1017.9 |
| 20260831181608 | 22 | 86 | 4.8 | 11.3 | 0.00 | 1.75 | 0.38 | 64 | 1018.1 |
| 20260831180037 | 23 | 189 | 3.2 | 11.3 | 0.00 | 1.75 | 0.38 | 63 | 1018.4 |
| 20260831174503 | 23 | 146 | 4.8 | 11.3 | 0.00 | 1.75 | 0.38 | 63 | 1018.1 |
| 20260831173038 | 22 | 153 | 1.6 | 9.7 | 0.00 | 1.75 | 0.38 | 65 | 1018.3 |
| 20260831171609 | 22 | 104 | 3.2 | 12.9 | 0.00 | 1.75 | 0.38 | 68 | 1018.4 |
| 20260831170035 | 22 | 119 | 3.2 | 9.7 | 0.00 | 1.75 | 0.38 | 69 | 1018.6 |
| 20260831164614 | 22 | 147 | 4.8 | 14.5 | 0.00 | 1.75 | 0.38 | 68 | 1018.6 |
| 20260831163037 | 22 | 156 | 6.4 | 17.7 | 0.00 | 1.75 | 0.38 | 68 | 1018.6 |